FW1042 Weather Reports


time (UTC)temp
C
wind
direction
speed
KPH
gust
KPH
rain 1hr
cm
rain 24hr
cm
rain mn
cm
humidity
%
barometer
mb
20260508203119 25 186 8.0 20.9 0.00 1.14 1.14 67 1010.1
20260508202619 25 215 6.4 17.7 0.00 1.14 1.14 66 1010.2
20260508202118 25 207 6.4 17.7 0.00 1.14 1.14 66 1010.2
20260508201617 25 181 6.4 17.7 0.00 1.14 1.14 65 1010.2
20260508201116 25 182 6.4 14.5 0.00 1.14 1.14 64 1010.4
20260508200908 25 156 6.4 14.5 0.00 1.14 1.14 64 1010.4
20260508200115 26 141 6.4 14.5 0.00 1.14 1.14 63 1010.4
20260508195619 26 275 6.4 22.5 0.00 1.14 1.14 62 1010.2
20260508195114 26 215 6.4 22.5 0.00 1.14 1.14 62 1010.5
20260508194609 26 206 6.4 19.3 0.00 1.14 1.14 62 1010.4
20260508194104 26 219 6.4 16.1 0.00 1.14 1.14 60 1010.5
20260508193601 26 178 6.4 22.5 0.00 1.14 1.14 59 1010.6
20260508193100 27 217 4.8 22.5 0.00 1.14 1.14 59 1010.5
20260508192602 27 165 6.4 17.7 0.00 1.14 1.14 60 1010.6
20260508192100 26 180 6.4 16.1 0.00 1.14 1.14 60 1010.6
20260508191903 26 165 6.4 14.5 0.00 1.14 1.14 59 1010.6
20260508191101 27 180 4.8 14.5 0.00 1.14 1.14 58 1010.6
20260508190600 27 190 3.2 14.5 0.00 1.14 1.14 59 1010.6
20260508190101 27 59 3.2 14.5 0.00 1.14 1.14 59 1010.6
20260508185600 27 175 4.8 14.5 0.00 1.14 1.14 59 1010.6
20260508185100 26 212 4.8 16.1 0.00 1.14 1.14 61 1010.7
20260508184600 26 230 4.8 16.1 0.00 1.14 1.14 61 1010.7
20260508184101 26 138 4.8 12.9 0.00 1.14 1.14 61 1010.8
20260508183852 26 147 4.8 17.7 0.00 1.14 1.14 63 1010.7
20260508183350 26 284 4.8 17.7 0.00 1.14 1.14 62 1010.9
20260508182700 26 141 4.8 12.9 0.00 1.14 1.14 63 1011.2
20260508182641 26 206 4.8 12.9 0.00 1.14 1.14 61 1011.1
20260508181853 25 185 3.2 9.7 0.00 1.14 1.14 61 1011.3
20260508181057 25 206 4.8 16.1 0.03 1.14 1.14 62 1011.4
20260508180556 25 197 4.8 16.1 0.03 1.14 1.14 62 1011.6
20260508180059 25 149 4.8 11.3 0.03 1.14 1.14 64 1011.6
20260508175555 25 207 4.8 14.5 0.03 1.14 1.14 64 1011.8
20260508175136 24 157 3.2 8.0 0.03 1.14 1.14 62 1011.9
20260508175124 25 138 4.8 14.5 0.03 1.14 1.14 65 1011.8
20260508174051 24 136 4.8 14.5 0.03 1.14 1.14 62 1011.9
20260508173550 24 150 3.2 14.5 0.03 1.14 1.14 64 1012.0
20260508173051 24 178 3.2 8.0 0.03 1.14 1.14 64 1012.1
20260508172550 24 192 4.8 11.3 0.03 1.14 1.14 64 1012.0
20260508172051 24 160 4.8 11.3 0.03 1.14 1.14 62 1012.3
20260508171549 24 167 4.8 12.9 0.03 1.14 1.14 65 1012.4
20260508171050 23 161 4.8 12.9 0.00 1.12 1.12 64 1012.5
20260508170548 23 147 4.8 16.1 0.00 1.12 1.12 64 1012.7
20260508170048 23 218 6.4 16.1 0.00 1.12 1.12 64 1012.9
20260508165549 23 128 6.4 16.1 0.00 1.12 1.12 63 1012.9
20260508165052 23 180 6.4 16.1 0.00 1.12 1.12 65 1013.2
20260508164549 23 222 6.4 16.1 0.00 1.12 1.12 65 1013.1
20260508164046 23 152 4.8 14.5 0.00 1.12 1.12 66 1013.1
20260508163547 22 169 4.8 12.9 0.00 1.12 1.12 68 1013.2
20260508163047 22 103 4.8 11.3 0.00 1.12 1.12 70 1013.3
20260508162844 21 169 4.8 11.3 0.00 1.12 1.12 70 1013.4
20260508162047 21 169 4.8 12.9 0.00 1.12 1.12 70 1013.4
20260508161835 21 200 4.8 12.9 0.00 1.12 1.12 70 1013.7
20260508161041 21 173 4.8 9.7 0.00 1.12 1.12 71 1013.7
20260508160541 21 185 4.8 12.9 0.00 1.12 1.12 72 1013.9
20260508160040 21 193 4.8 12.9 0.00 1.12 1.12 73 1013.7
20260508155541 20 188 4.8 9.7 0.00 1.12 1.12 75 1013.8
20260508155040 20 157 3.2 9.7 0.00 1.12 1.12 75 1014.0
20260508154540 20 109 3.2 11.3 0.00 1.12 1.12 76 1014.0
20260508154041 20 213 3.2 11.3 0.00 1.12 1.12 75 1013.8
20260508153545 20 159 3.2 9.7 0.00 1.12 1.12 75 1014.0
20260508153329 20 169 3.2 6.4 0.00 1.12 1.12 76 1014.0
20260508152539 20 116 3.2 11.3 0.00 1.12 1.12 76 1014.2
20260508152045 19 199 4.8 11.3 0.00 1.12 1.12 77 1014.2
20260508151536 19 197 4.8 11.3 0.00 1.12 1.12 79 1014.2
20260508151328 19 145 4.8 11.3 0.00 1.12 1.12 82 1014.3
20260508150530 18 200 3.2 11.3 0.00 1.12 1.12 85 1014.1
20260508150030 18 171 3.2 11.3 0.00 1.12 1.12 87 1014.1
20260508145531 18 86 3.2 9.7 0.00 1.12 1.12 89 1014.2
20260508145035 18 128 3.2 9.7 0.00 1.12 1.12 90 1014.2
20260508144531 17 180 3.2 9.7 0.00 1.12 1.12 91 1014.3
20260508144030 17 207 3.2 8.0 0.00 1.12 1.12 92 1014.0
20260508143530 17 174 1.6 8.0 0.00 1.12 1.12 93 1014.5
20260508143331 17 169 0.0 4.8 0.00 1.12 1.12 93 1014.5
20260508142531 17 142 0.0 4.8 0.00 1.12 1.12 93 1014.6
20260508142025 17 222 0.0 3.2 0.00 1.12 1.12 93 1014.6
20260508141524 17 196 1.6 4.8 0.00 1.12 1.12 94 1014.5
20260508141025 17 136 0.0 4.8 0.00 1.12 1.12 94 1014.3
20260508140524 17 170 0.0 3.2 0.00 1.12 1.12 94 1014.5
20260508140022 16 112 0.0 0.0 0.00 1.12 1.12 95 1014.6
20260508135521 16 112 0.0 0.0 0.00 1.12 1.12 94 1014.5
20260508135311 16 112 0.0 1.6 0.00 1.12 1.12 94 1014.5
20260508134520 16 115 0.0 3.2 0.00 1.12 1.12 94 1014.5
20260508134051 16 132 1.6 6.4 0.00 1.12 1.12 95 1014.7
20260508134040 16 108 0.0 3.2 0.00 1.12 1.12 94 1014.5
20260508133930 16 161 0.0 3.2 0.00 1.12 1.12 95 1014.5
20260508133827 16 132 0.0 1.6 0.00 1.12 1.12 94 1014.5
20260508133725 16 132 1.6 4.8 0.00 1.12 1.12 94 1014.3
20260508132016 16 132 1.6 6.4 0.00 1.12 1.12 95 1014.7
20260508131516 16 183 3.2 8.0 0.00 1.12 1.12 94 1014.6
20260508131016 16 151 3.2 8.0 0.00 1.12 1.12 94 1014.2
20260508130516 16 155 3.2 6.4 0.00 1.12 1.12 95 1014.4
20260508130017 16 168 3.2 9.7 0.00 1.12 1.12 94 1014.5
20260508125516 16 145 3.2 9.7 0.00 1.12 1.12 94 1014.2
20260508125015 16 158 1.6 6.4 0.00 1.12 1.12 94 1014.3
20260508124514 16 150 1.6 6.4 0.00 1.12 1.12 94 1014.6
20260508124014 16 190 1.6 6.4 0.00 1.12 1.12 94 1014.7
20260508123514 15 148 0.0 3.2 0.00 1.12 1.12 94 1014.4
20260508123316 15 80 1.6 3.2 0.00 1.12 1.12 94 1014.5
20260508122513 15 117 1.6 8.0 0.00 1.12 1.12 94 1014.9
20260508122014 15 206 1.6 8.0 0.03 1.12 1.12 94 1015.2
20260508121514 15 150 0.0 4.8 0.20 1.12 1.12 94 1014.7
20260508121014 15 156 0.0 1.6 0.20 1.12 1.12 94 1014.6
20260508120515 15 134 0.0 0.0 0.20 1.12 1.12 94 1014.7
20260508120015 15 134 0.0 0.0 0.20 1.12 1.12 94 1014.7
20260508115515 15 134 0.0 1.6 0.23 1.12 1.12 94 1014.8
20260508115312 15 134 0.0 1.6 0.28 1.12 1.12 94 1014.6
20260508114514 15 227 0.0 1.6 0.30 1.12 1.12 93 1014.5
20260508114317 15 231 0.0 3.2 0.36 1.12 1.12 93 1014.7
20260508113508 15 231 1.6 6.4 0.36 1.12 1.12 93 1014.5
20260508113008 15 227 3.2 11.3 0.41 1.12 1.12 93 1014.4
20260508112508 15 172 4.8 11.3 0.53 1.12 1.12 93 1014.2
20260508112009 15 168 3.2 11.3 0.86 1.09 1.12 93 1014.1
20260508111803 15 137 1.6 4.8 0.86 0.91 0.97 93 1014.1
20260508111008 15 206 1.6 4.8 0.86 0.91 0.91 92 1014.5
20260508110506 15 142 1.6 6.4 0.86 0.91 0.91 92 1013.8
20260508110115 15 185 4.8 9.7 0.84 0.89 0.91 92 1013.9
20260508110056 15 157 3.2 9.7 0.86 0.91 0.91 92 1013.9
20260508105301 16 188 4.8 8.0 0.79 0.84 0.84 91 1014.1
20260508104505 16 150 1.6 8.0 0.76 0.81 0.81 91 1014.7
20260508104006 16 192 1.6 4.8 0.71 0.76 0.79 91 1015.1
20260508103506 16 174 1.6 4.8 0.71 0.76 0.76 90 1014.9
20260508103005 16 186 1.6 8.0 0.66 0.71 0.71 90 1014.5
20260508102506 16 155 3.2 8.0 0.53 0.58 0.58 90 1014.3
20260508102006 16 138 0.0 6.4 0.18 0.23 0.30 90 1014.1
20260508101856 16 142 1.6 6.4 0.00 0.05 0.05 90 1014.3
20260508101852 16 238 0.0 4.8 0.00 0.05 0.08 90 1014.7
20260508100807 16 185 1.6 6.4 0.00 0.05 0.05 90 1014.4
20260508100307 16 182 1.6 6.4 0.05 0.05 0.05 90 1013.7
20260508095506 16 197 1.6 6.4 0.05 0.05 0.05 90 1013.5
20260508095006 16 169 1.6 6.4 0.05 0.05 0.05 90 1013.4
20260508094504 16 151 1.6 6.4 0.05 0.05 0.05 90 1013.4
20260508094004 16 174 1.6 3.2 0.05 0.05 0.05 89 1013.5
20260508093506 16 149 1.6 3.2 0.05 0.05 0.05 89 1013.5
20260508093004 16 122 1.6 4.8 0.05 0.05 0.05 89 1013.5
20260508092503 16 153 1.6 6.4 0.05 0.05 0.05 89 1013.5
20260508092002 16 193 3.2 6.4 0.05 0.05 0.05 89 1013.7
20260508091502 16 172 3.2 6.4 0.05 0.05 0.05 88 1013.5
20260508091002 16 192 1.6 4.8 0.05 0.05 0.05 88 1013.6
20260508090502 16 151 1.6 4.8 0.05 0.05 0.05 88 1013.6
20260508090011 16 147 0.0 4.8 0.00 0.00 0.00 87 1013.8
20260508085841 16 234 3.2 8.0 0.00 0.00 0.00 87 1014.3
20260508085837 16 148 1.6 6.4 0.00 0.00 0.00 87 1013.9
20260508084513 16 175 3.2 8.0 0.00 0.00 0.00 86 1013.6
20260508084001 16 162 0.0 8.0 0.00 0.00 0.00 86 1013.7
20260508083501 16 144 0.0 1.6 0.00 0.00 0.00 85 1014.1
20260508083005 16 161 0.0 4.8 0.00 0.00 0.00 84 1014.3
20260508082749 16 200 1.6 4.8 0.00 0.00 0.00 84 1015.0
20260508082001 17 215 3.2 9.7 0.00 0.00 0.00 83 1014.6
20260508081508 17 196 3.2 11.3 0.00 0.00 0.00 82 1014.1
20260508080956 17 148 4.8 11.3 0.00 0.00 0.00 80 1013.8
20260508080543 17 146 4.8 9.7 0.00 0.00 0.00 79 1014.5
20260508075455 17 157 1.6 6.4 0.00 0.00 0.00 77 1014.7
20260508074956 17 142 1.6 4.8 0.00 0.00 0.00 77 1014.6
20260508074505 17 145 0.0 3.2 0.00 0.00 0.00 77 1015.2
20260508073954 17 195 0.0 3.2 0.00 0.00 0.00 77 1015.6
20260508073742 17 227 0.0 0.0 0.00 0.00 0.00 77 1015.6
20260508073240 17 252 0.0 0.0 0.00 0.00 0.00 77 1015.6
20260508072450 17 148 0.0 0.0 0.00 0.00 0.00 78 1015.5
20260508071949 17 148 0.0 0.0 0.00 0.00 0.00 78 1015.1
20260508071752 17 148 0.0 0.0 0.00 0.00 0.00 78 1015.3
20260508070950 17 148 0.0 0.0 0.00 0.00 0.00 78 1014.9
20260508070450 17 148 0.0 0.0 0.00 0.00 0.00 78 1014.9
20260508065951 16 148 0.0 0.0 0.00 0.00 0.00 78 1015.1
20260508065450 16 148 0.0 0.0 0.00 0.00 0.00 78 1015.3
20260508065248 16 148 0.0 0.0 0.00 0.00 0.00 78 1015.3
20260508064754 16 148 0.0 0.0 0.00 0.00 0.00 78 1015.2
20260508063952 16 148 0.0 0.0 0.00 0.00 0.00 77 1015.3
20260508063448 16 148 0.0 0.0 0.00 0.00 0.00 77 1015.5
20260508062948 17 148 0.0 0.0 0.00 0.00 0.00 77 1015.8
20260508062447 17 150 0.0 0.0 0.00 0.00 0.00 76 1015.9
20260508061945 17 150 0.0 0.0 0.00 0.00 0.00 76 1015.9
20260508061741 17 150 0.0 0.0 0.00 0.00 0.00 76 1015.8
20260508060944 17 150 0.0 0.0 0.00 0.00 0.00 75 1015.4
20260508060442 17 150 0.0 0.0 0.00 0.00 0.00 75 1015.5
20260508055945 17 150 0.0 0.0 0.00 0.00 0.00 75 1015.6
20260508055437 17 150 0.0 0.0 0.00 0.00 0.00 75 1015.8
20260508054935 17 150 0.0 0.0 0.00 0.00 0.00 74 1015.5
20260508054539 17 150 0.0 0.0 0.00 0.00 0.00 74 1015.6
20260508054521 17 150 0.0 0.0 0.00 0.00 0.00 74 1015.5
20260508053432 17 150 0.0 0.0 0.00 0.00 0.00 73 1015.6
20260508052931 17 150 0.0 0.0 0.00 0.00 0.00 73 1015.5
20260508052724 17 150 0.0 0.0 0.00 0.00 0.00 73 1015.6
20260508051928 17 150 0.0 0.0 0.00 0.00 0.00 73 1015.8
20260508051432 17 150 0.0 0.0 0.00 0.00 0.00 72 1015.6
20260508050927 17 150 0.0 0.0 0.00 0.00 0.00 72 1015.8
20260508050424 18 150 0.0 0.0 0.00 0.00 0.00 72 1015.7
20260508050238 18 150 0.0 0.0 0.00 0.00 0.00 72 1015.7
20260508045421 18 150 0.0 0.0 0.00 0.00 0.00 71 1015.8
20260508044917 18 150 0.0 0.0 0.00 0.00 0.00 71 1015.7
20260508044417 18 150 0.0 0.0 0.00 0.00 0.00 71 1015.6
20260508044222 18 150 0.0 0.0 0.00 0.00 0.00 71 1015.6
20260508043417 18 150 0.0 0.0 0.00 0.00 0.00 71 1015.5
20260508042917 18 150 0.0 0.0 0.00 0.00 0.00 71 1015.5
20260508042417 18 150 0.0 0.0 0.00 0.00 0.00 71 1015.6
20260508042323 18 150 0.0 0.0 0.00 0.00 0.00 70 1015.7
20260508041713 18 161 0.0 0.0 0.00 0.00 0.00 70 1015.7
20260508041310 18 146 0.0 0.0 0.00 0.00 0.00 70 1015.7
20260508041304 18 162 0.0 0.0 0.00 0.00 0.00 70 1015.6
20260508035920 18 146 0.0 3.2 0.00 0.00 0.00 70 1015.6
20260508035415 18 179 1.6 6.4 0.00 0.00 0.00 70 1015.6
20260508034915 18 163 1.6 6.4 0.00 0.00 0.00 69 1015.6
20260508034414 18 191 1.6 8.0 0.00 0.00 0.00 69 1015.6
20260508033915 18 129 1.6 8.0 0.00 0.00 0.00 69 1015.6
20260508033415 18 157 1.6 4.8 0.00 0.00 0.00 68 1015.6
20260508032915 18 146 1.6 4.8 0.00 0.00 0.00 68 1015.6
20260508032418 18 184 3.2 6.4 0.00 0.00 0.00 68 1015.4
20260508031915 18 172 1.6 6.4 0.00 0.00 0.00 68 1015.5
20260508031415 18 180 1.6 6.4 0.00 0.00 0.00 68 1015.4
20260508030915 18 179 1.6 4.8 0.00 0.00 0.00 68 1015.5
20260508030415 18 159 1.6 3.2 0.00 0.00 0.00 68 1015.4
20260508025914 18 153 1.6 4.8 0.00 0.00 0.00 68 1015.3
20260508025414 18 148 1.6 4.8 0.00 0.00 0.00 67 1015.2
20260508024915 18 136 1.6 4.8 0.00 0.00 0.00 67 1015.2
20260508024706 18 155 1.6 3.2 0.00 0.00 0.00 66 1015.1
20260508023915 18 163 1.6 3.2 0.00 0.00 0.00 66 1015.1
20260508023415 19 165 0.0 3.2 0.00 0.00 0.00 65 1015.0
20260508022915 19 165 1.6 4.8 0.00 0.00 0.00 64 1014.9
20260508022414 19 165 1.6 4.8 0.00 0.00 0.00 64 1015.0
20260508021913 19 194 1.6 8.0 0.00 0.00 0.00 63 1014.9
20260508021414 19 181 1.6 8.0 0.00 0.00 0.00 63 1014.8
20260508020912 19 146 1.6 6.4 0.00 0.00 0.00 63 1014.9
20260508020411 19 144 1.6 6.4 0.00 0.00 0.00 62 1014.7
20260508015909 20 156 3.2 8.0 0.00 0.00 0.00 62 1014.6
20260508015409 20 184 3.2 8.0 0.00 0.00 0.00 61 1014.8
20260508014909 20 146 4.8 12.9 0.00 0.00 0.00 61 1014.7
20260508014410 20 170 4.8 12.9 0.00 0.00 0.00 61 1014.7
20260508013908 20 168 4.8 11.3 0.00 0.00 0.00 61 1014.8
20260508013410 20 213 4.8 11.3 0.00 0.00 0.00 60 1014.8
20260508012906 20 250 4.8 9.7 0.00 0.00 0.00 60 1014.6
20260508012405 20 191 4.8 9.7 0.00 0.00 0.00 59 1014.7
20260508012200 20 140 4.8 8.0 0.00 0.00 0.00 59 1014.5
20260508011403 20 159 3.2 12.9 0.00 0.00 0.00 59 1014.6
20260508010903 20 141 3.2 12.9 0.00 0.00 0.00 58 1014.7
20260508010403 21 193 4.8 16.1 0.00 0.00 0.00 58 1014.7
20260508010158 21 213 3.2 16.1 0.00 0.00 0.00 57 1014.7
20260508005648 21 187 3.2 11.3 0.00 0.00 0.00 57 1014.6
20260508004941 21 161 3.2 9.7 0.00 0.00 0.00 57 1014.4
20260508004926 21 169 3.2 11.3 0.00 0.00 0.00 57 1014.3
20260508003850 21 161 3.2 9.7 0.00 0.00 0.00 57 1014.4
20260508003350 22 216 3.2 9.7 0.00 0.00 0.00 56 1014.5
20260508003148 22 137 3.2 9.7 0.00 0.00 0.00 55 1014.5
20260508002351 22 162 3.2 8.0 0.00 0.00 0.00 54 1014.5
20260508001850 22 139 3.2 9.7 0.00 0.00 0.00 53 1014.6
20260508001351 23 248 1.6 9.7 0.00 0.00 0.00 51 1014.7
20260508000848 23 213 1.6 8.0 0.00 0.00 0.00 48 1014.7
20260508000350 23 5 1.6 4.8 0.00 0.00 0.00 46 1014.6
20260507235847 23 340 1.6 4.8 0.00 0.00 0.00 46 1014.7
20260507235347 23 9 1.6 4.8 0.00 0.00 0.00 46 1014.7
20260507235134 23 347 1.6 4.8 0.00 0.00 0.00 46 1014.6
20260507234426 23 54 3.2 6.4 0.00 0.00 0.00 46 1014.6
20260507234409 23 351 1.6 4.8 0.00 0.00 0.00 45 1014.6
20260507233324 23 5 3.2 6.4 0.00 0.00 0.00 46 1014.6
20260507232820 23 0 3.2 11.3 0.00 0.00 0.00 45 1014.6
20260507232321 23 355 4.8 11.3 0.00 0.00 0.00 45 1014.6
20260507232108 23 10 4.8 11.3 0.00 0.00 0.00 45 1014.6
20260507231317 23 336 3.2 11.3 0.00 0.00 0.00 45 1014.7
20260507230816 23 293 3.2 6.4 0.00 0.00 0.00 45 1014.7
20260507230316 23 0 1.6 4.8 0.00 0.00 0.00 45 1014.8
20260507225816 23 344 3.2 6.4 0.00 0.00 0.00 45 1014.8
20260507225314 23 297 3.2 6.4 0.00 0.00 0.00 45 1014.7
20260507224908 23 303 3.2 6.4 0.00 0.00 0.00 45 1014.9
20260507224852 23 317 3.2 6.4 0.00 0.00 0.00 45 1014.8
20260507223814 23 5 3.2 6.4 0.00 0.00 0.00 45 1014.9
20260507223611 23 344 3.2 8.0 0.00 0.00 0.00 45 1014.9
20260507222808 23 300 3.2 8.0 0.00 0.00 0.00 44 1014.8
20260507222306 23 355 3.2 8.0 0.00 0.00 0.00 44 1014.9
20260507221804 23 355 3.2 8.0 0.00 0.00 0.00 44 1015.0
20260507221303 23 13 3.2 8.0 0.00 0.00 0.00 44 1014.8
20260507220801 23 355 1.6 4.8 0.00 0.00 0.00 44 1014.8
20260507220302 23 33 3.2 8.0 0.00 0.00 0.00 44 1014.9
20260507215800 23 328 3.2 8.0 0.00 0.00 0.00 44 1015.1
20260507215548 23 281 3.2 9.7 0.00 0.00 0.00 43 1014.9
20260507214802 24 312 3.2 11.3 0.00 0.00 0.00 44 1015.0
20260507214300 24 306 4.8 11.3 0.00 0.00 0.00 43 1015.0
20260507213802 24 25 4.8 11.3 0.00 0.00 0.00 43 1015.0
20260507213301 24 340 3.2 11.3 0.00 0.00 0.00 43 1015.2
20260507213121 24 336 1.6 6.4 0.00 0.00 0.00 43 1015.1
20260507212306 24 284 3.2 6.4 0.00 0.00 0.00 43 1015.2
20260507212049 24 57 3.2 9.7 0.00 0.00 0.00 43 1015.3
20260507211301 25 340 4.8 9.7 0.00 0.00 0.00 42 1015.3
20260507210800 25 5 4.8 12.9 0.00 0.00 0.00 42 1015.4
20260507210301 25 290 3.2 12.9 0.00 0.00 0.00 42 1015.3
20260507205800 25 355 3.2 11.3 0.00 0.00 0.00 43 1015.3
20260507205301 25 278 3.2 8.0 0.00 0.00 0.00 44 1015.4
20260507204802 24 22 4.8 9.7 0.00 0.00 0.00 44 1015.3
20260507204555 25 321 4.8 12.9 0.00 0.00 0.00 45 1015.3
20260507203800 24 244 4.8 12.9 0.00 0.00 0.00 44 1015.4